Simultaneous Nadir Overpasses (SNOs) Predictions

Prediction of SNOs between METOP-A and TERRA Satellite Orbit:

Table of predicted SNOs for the next 14.0 days since TLE Epoch: 7/27/2013
Index Date (METOP-A) Time (METOP-A) Lat,Lon (METOP-A) SZA (METOP-A ) Date (TERRA) Time (TERRA) Lat,Lon (TERRA) SZA (TERRA ) Distance(km) Time Diff (sec)
1 07/27/2013 19:51:04 -81.29, 109.07 115.07 07/27/2013 19:51:54 -81.30, 109.16 115.03 1.60 50
2 07/27/2013 20:41:43 81.30, -83.02 65.01 07/27/2013 20:41:20 81.31, -83.07 65.00 0.96 23
3 07/30/2013 15:25:27 -81.29, 175.44 114.40 07/30/2013 15:26:11 -81.29, 175.34 114.40 2.02 44
4 07/30/2013 16:16:07 81.30, -17.06 65.63 07/30/2013 16:15:37 81.29, -16.92 65.63 2.31 30
5 08/02/2013 10:59:51 -81.29,-118.21 113.70 08/02/2013 11:00:28 -81.29,-118.19 113.69 0.67 37
6 08/
